TimeEST,TemperatureF,Dew PointF,Humidity,Sea Level PressureIn,VisibilityMPH,Wind Direction,Wind SpeedMPH,Gust SpeedMPH,PrecipitationIn,Events,Conditions,WindDirDegrees,DateUTC
12:15 AM,15.8,6.8,68,30.16,10.0,Calm,Calm,-,N/A,,Overcast,0,2014-02-09 05:15:00
12:35 AM,16.9,7.7,67,30.16,10.0,Calm,Calm,-,N/A,,Overcast,0,2014-02-09 05:35:00
12:55 AM,15.8,7.5,70,30.16,10.0,Calm,Calm,-,N/A,,Overcast,0,2014-02-09 05:55:00
1:15 AM,18.3,9.1,67,30.17,10.0,Calm,Calm,-,N/A,,Overcast,0,2014-02-09 06:15:00
1:35 AM,17.4,8.1,67,30.16,10.0,Calm,Calm,-,N/A,,Overcast,0,2014-02-09 06:35:00
1:55 AM,15.8,7.5,70,30.16,10.0,Calm,Calm,-,N/A,,Overcast,0,2014-02-09 06:55:00
2:15 AM,15.8,8.4,73,30.16,10.0,Calm,Calm,-,N/A,,Overcast,0,2014-02-09 07:15:00
2:35 AM,15.8,8.2,72,30.15,10.0,Calm,Calm,-,N/A,,Overcast,0,2014-02-09 07:35:00
2:55 AM,16.5,9.0,72,30.16,10.0,Calm,Calm,-,N/A,,Overcast,0,2014-02-09 07:55:00
3:15 AM,18.3,8.6,66,30.15,10.0,Calm,Calm,-,N/A,,Overcast,0,2014-02-09 08:15:00
3:35 AM,16.5,8.1,69,30.15,10.0,Calm,Calm,-,N/A,,Overcast,0,2014-02-09 08:35:00
3:55 AM,18.3,9.1,67,30.15,10.0,Calm,Calm,-,N/A,,Overcast,0,2014-02-09 08:55:00
4:15 AM,18.3,8.8,66,30.15,10.0,Calm,Calm,-,N/A,,Overcast,0,2014-02-09 09:15:00
4:35 AM,18.3,9.0,67,30.15,10.0,Calm,Calm,-,N/A,,Overcast,0,2014-02-09 09:35:00
4:55 AM,18.3,9.1,67,30.15,10.0,Calm,Calm,-,N/A,,Overcast,0,2014-02-09 09:55:00
5:15 AM,18.3,9.3,68,30.15,10.0,South,3.5,-,N/A,,Overcast,190,2014-02-09 10:15:00
5:35 AM,18.3,9.5,68,30.15,10.0,Calm,Calm,-,N/A,,Overcast,0,2014-02-09 10:35:00
5:55 AM,18.3,9.7,69,30.15,10.0,Calm,Calm,-,N/A,,Overcast,0,2014-02-09 10:55:00
6:15 AM,16.3,8.6,72,30.14,10.0,Calm,Calm,-,N/A,,Overcast,0,2014-02-09 11:15:00
6:35 AM,15.8,9.1,75,30.15,10.0,Calm,Calm,-,N/A,,Overcast,0,2014-02-09 11:35:00
6:55 AM,15.8,9.5,76,30.15,10.0,Calm,Calm,-,N/A,,Overcast,0,2014-02-09 11:55:00
7:15 AM,15.8,9.9,77,30.16,10.0,Calm,Calm,-,N/A,Snow,Light Snow,0,2014-02-09 12:15:00
7:35 AM,15.8,10.0,78,30.16,10.0,Calm,Calm,-,N/A,Snow,Light Snow,0,2014-02-09 12:35:00
7:55 AM,15.8,10.2,79,30.16,10.0,Calm,Calm,-,N/A,,Overcast,0,2014-02-09 12:55:00
8:15 AM,16.7,10.8,77,30.17,7.0,Calm,Calm,-,N/A,Snow,Light Snow,0,2014-02-09 13:15:00
8:35 AM,17.6,11.3,76,30.16,5.0,Calm,Calm,-,N/A,Snow,Light Snow,0,2014-02-09 13:35:00
8:55 AM,18.5,11.7,75,30.15,5.0,Calm,Calm,-,N/A,Snow,Light Snow,0,2014-02-09 13:55:00
9:15 AM,20.8,11.8,68,30.15,7.0,Calm,Calm,-,N/A,Snow,Light Snow,0,2014-02-09 14:15:00
9:35 AM,21.9,11.8,65,30.16,5.0,Calm,Calm,-,N/A,Snow,Light Snow,0,2014-02-09 14:35:00
9:55 AM,23.4,12.0,62,30.16,7.0,SW,3.5,-,N/A,Snow,Light Snow,220,2014-02-09 14:55:00
10:15 AM,23.9,11.1,58,30.16,10.0,SSW,3.5,-,N/A,,Overcast,200,2014-02-09 15:15:00
10:35 AM,23.5,10.6,58,30.15,10.0,SSW,4.6,-,N/A,,Overcast,210,2014-02-09 15:35:00
10:55 AM,23.7,8.8,53,30.14,10.0,SSW,3.5,-,N/A,,Mostly Cloudy,210,2014-02-09 15:55:00
11:15 AM,25.7,9.1,50,30.14,10.0,South,5.8,-,N/A,,Scattered Clouds,190,2014-02-09 16:15:00
11:35 AM,25.7,9.0,49,30.11,10.0,SSW,4.6,-,N/A,,Scattered Clouds,200,2014-02-09 16:35:00
11:55 AM,25.7,8.6,48,30.10,10.0,SSW,4.6,-,N/A,,Scattered Clouds,210,2014-02-09 16:55:00
12:15 PM,28.2,10.2,47,30.09,10.0,West,6.9,-,N/A,,Clear,260,2014-02-09 17:15:00
12:35 PM,27.5,8.1,44,30.08,10.0,WSW,5.8,-,N/A,,Clear,240,2014-02-09 17:35:00
12:55 PM,24.6,7.3,48,30.07,10.0,SW,6.9,-,N/A,,Mostly Cloudy,220,2014-02-09 17:55:00
1:15 PM,25.7,7.3,46,30.06,10.0,SSE,5.8,-,N/A,,Mostly Cloudy,160,2014-02-09 18:15:00
1:35 PM,24.3,7.2,48,30.06,10.0,SSW,4.6,-,N/A,,Mostly Cloudy,200,2014-02-09 18:35:00
1:55 PM,25.0,6.6,46,30.06,10.0,SW,3.5,-,N/A,,Overcast,230,2014-02-09 18:55:00
2:15 PM,24.3,7.0,48,30.04,10.0,ESE,3.5,-,N/A,,Overcast,110,2014-02-09 19:15:00
2:35 PM,24.8,7.2,47,30.04,10.0,Calm,Calm,-,N/A,,Mostly Cloudy,0,2014-02-09 19:35:00
2:55 PM,24.1,6.8,48,30.02,10.0,Calm,Calm,-,N/A,,Mostly Cloudy,0,2014-02-09 19:55:00
3:15 PM,23.4,9.1,55,30.01,10.0,NE,5.8,-,N/A,,Mostly Cloudy,40,2014-02-09 20:15:00
3:35 PM,23.4,9.3,55,30.01,10.0,NE,6.9,-,N/A,,Overcast,50,2014-02-09 20:35:00
3:55 PM,23.0,9.3,56,30.01,10.0,ENE,5.8,-,N/A,,Overcast,60,2014-02-09 20:55:00
4:15 PM,22.5,10.0,59,30.01,10.0,NE,4.6,-,N/A,,Overcast,50,2014-02-09 21:15:00
4:35 PM,22.1,10.4,61,30.01,10.0,NE,4.6,-,N/A,,Overcast,50,2014-02-09 21:35:00
4:55 PM,22.1,11.1,63,30.01,10.0,NE,4.6,-,N/A,,Overcast,40,2014-02-09 21:55:00
5:15 PM,22.1,11.1,63,30.01,10.0,NNE,4.6,-,N/A,,Overcast,30,2014-02-09 22:15:00
5:35 PM,22.1,11.3,63,30.01,10.0,NNE,3.5,-,N/A,,Overcast,30,2014-02-09 22:35:00
5:55 PM,21.6,12.0,67,30.01,4.0,Calm,Calm,-,N/A,Snow,Light Snow,0,2014-02-09 22:55:00
6:15 PM,20.8,13.8,74,30.01,1.8,North,3.5,-,N/A,Snow,Light Snow,360,2014-02-09 23:15:00
6:35 PM,20.8,14.9,78,30.01,2.5,Calm,Calm,-,N/A,Snow,Light Snow,0,2014-02-09 23:35:00
6:55 PM,20.8,15.4,80,30.01,2.5,Calm,Calm,-,N/A,Snow,Light Snow,0,2014-02-09 23:55:00
7:15 PM,20.5,15.6,81,30.01,2.5,Calm,Calm,-,N/A,Snow,Light Snow,0,2014-02-10 00:15:00
7:35 PM,19.8,15.1,82,30.00,2.0,Calm,Calm,-,N/A,Snow,Light Snow,0,2014-02-10 00:35:00
7:55 PM,19.6,15.1,83,30.00,3.0,Calm,Calm,-,N/A,Snow,Light Snow,0,2014-02-10 00:55:00
8:15 PM,19.4,15.1,83,30.00,3.0,Calm,Calm,-,N/A,Snow,Light Snow,0,2014-02-10 01:15:00
8:35 PM,19.0,14.9,84,29.99,2.5,Calm,Calm,-,N/A,Snow,Light Snow,0,2014-02-10 01:35:00
8:55 PM,19.2,14.9,83,29.99,2.0,North,3.5,-,N/A,Snow,Light Snow,10,2014-02-10 01:55:00
9:15 PM,19.0,14.9,84,29.98,2.5,NNE,3.5,-,N/A,Snow,Light Snow,30,2014-02-10 02:15:00
9:35 PM,19.2,14.9,83,29.98,2.5,NE,3.5,-,N/A,Snow,Light Snow,40,2014-02-10 02:35:00
9:55 PM,19.0,14.7,83,29.97,2.0,NNE,4.6,-,N/A,Snow,Light Snow,20,2014-02-10 02:55:00
10:15 PM,18.9,14.5,83,29.97,3.0,NNE,3.5,-,N/A,Snow,Light Snow,30,2014-02-10 03:15:00
10:35 PM,18.7,14.2,83,29.97,2.0,North,3.5,-,N/A,Snow,Light Snow,10,2014-02-10 03:35:00
10:55 PM,18.5,14.0,83,29.97,2.5,North,3.5,-,N/A,Snow,Light Snow,350,2014-02-10 03:55:00
11:15 PM,18.3,14.0,83,29.97,2.5,North,3.5,-,N/A,Snow,Light Snow,350,2014-02-10 04:15:00
11:35 PM,18.3,14.0,83,29.97,2.5,North,4.6,-,N/A,Snow,Light Snow,350,2014-02-10 04:35:00
11:55 PM,18.3,14.4,85,29.97,1.8,North,3.5,-,N/A,Snow,Light Snow,350,2014-02-10 04:55:00